Weather Roundup
Issued by NWS Chicago, IL

Home | Current Version | Previous Version | Graphics & Text | Print | Product List | Glossary On
Versions: 1 2 3 4 5 6 7 8 9 10 11 12 13 14 15 16 17 18 19 20 21 22 23 24 25 26 27 28 29 30 31 32 33 34 35 36 37 38 39 40 41 42 43 44 45 46 47 48 49 50
000
NZUS59 KLOT 282010
HRRLOT

CHICAGO AREA WEATHER ROUNDUP
NATIONAL WEATHER SERVICE CHICAGO/ROMEOVILLE IL
300 PM CDT MON JUL 28 2014

NOTE: "FAIR" INDICATES FEW OR NO CLOUDS BELOW 12,000 FEET WITH NO
SIGNIFICANT WEATHER AND/OR OBSTRUCTIONS TO VISIBILITY.

* THESE STATIONS ARE NOT UNDER NWS QUALITY CONTROL. THEY ALSO MAY NOT
  REPORT WEATHER SUCH AS PRECIPITATION OR FOG.

ILZ005-006-012>014-019>023-282100-
NORTHEAST ILLINOIS

CITY           SKY/WX    TMP DP  RH WIND       PRES   REMARKS
OHARE          PTSUNNY   71  44  37 N12       30.08S
MIDWAY         MOSUNNY   72  44  36 N25G35    30.08F
AURORA         PTSUNNY   70  48  45 N14G20    30.10S
LANSING*       SUNNY     66  43  43 N12G30    30.10R
JOLIET*        SUNNY     71  44  37 N10G16    30.10S
WAUKEGAN       SUNNY     66  50  56 NE9       30.08S
DUPAGE AIRPORT PTSUNNY   70  47  43 N12       30.09S
WHEELING       PTSUNNY   71  49  45 NE8       30.10S
KANKAKEE*      SUNNY     69  47  45 N14G22    30.10R
MORRIS*        MOSUNNY   72  49  44 N5        30.10R
LEWIS AIRPORT* MOSUNNY   71  44  37 N12G20    30.09S
NORTHERLY IS     N/A     64  48  56 N16         N/A
$$

WIZ051-052-058>065-066-070>072-282100-
SOUTHEAST WISCONSIN

CITY           SKY/WX    TMP DP  RH WIND       PRES   REMARKS
MILWAUKEE      PTSUNNY   65  50  58 NE10      30.10R
KENOSHA*       PTSUNNY   70  52  52 NE9       30.09S
RACINE*        SUNNY     66  50  56 NE12      30.11S
BURLINGTON     MOSUNNY   68  50  52 NW10G18   30.09F
WEST BEND      MOSUNNY   68  46  45 NW8       30.09S
$$

INZ001>003-010>013-019-020-282100-
NORTHWEST INDIANA

CITY           SKY/WX    TMP DP  RH WIND       PRES   REMARKS
GARY*          MOSUNNY   66  48  52 N23G35    30.10S
MICHIGAN CITY* NOT AVBL
RENSSELAER*    NOT AVBL
VALPARAISO     MOSUNNY   63  50  62 N15G24    30.08S
$$

LMZ740>746-282100-
SOUTHERN LAKE MICHIGAN

STATION/POSITION TIME  SKY/WX   TEMP WIND        PRES    VSBY
                                AIR  DIR/SP/G
                 (UTC)          (F)  (DEG/KT/KT) (MB)    (MI)
HARRISON CRIB    2000            61  350/ 21/ 24   N/A
BURNHAM HARBOR   2000            64  340/ 11/ 20   N/A
CALUMET HARBOR   2000            64  340/ 14/ 20 1018.0S
BURNS HARBOR     NOT AVBL
MICHIGAN CITY    2000            59  330/ 19/ 23   N/A
$$

ABBREVIATIONS USED IN REMARKS
   TC - TEMPERATURE IN CELSIUS
  WCI - WIND CHILL INDEX
   HX - HEAT INDEX
  VSB - VISIBILITY
$$


USA.gov is the U.S. government's official web portal to all federal, state and local government web resources and services.